Location: Bottenau
(48.5138°N, 8.0462°E)
Time: 20:20:03
(UTC+00:00)

USA 215 - Pass Details

Date: 18 April 2021
Orbit: 1101 x 1107 km, 123.0° (Epoch: 15 May)

Event Time Altitude Azimuth Distance (km) Brightness Sun altitude
Exits shadow 18:58:17 - 99° (E) 3,325 5.2 -6.2°
Reaches altitude 10° 18:59:16 10° 97° (E) 2,958 4.9 -6.3°
Maximum altitude 19:05:37 58° 21° (NNE) 1,276 3.7 -7.3°
Drops below altitude 10° 19:12:00 10° 305° (NW) 2,965 7.2 -8.2°
Sets 19:14:31 0° 302° (WNW) 3,925 8.6 -8.6°
